Tracking 29892 objects as of 21-Nov-2024
HD Live streaming from Space Station
objects crossing your sky now

CZ-6A DEB

Track CZ-6A DEB now!
10-day predictions


NORAD ID: 55238
Int'l Code: 2022-151XF
Perigee: 815.1 km
Apogee: 855.9 km
Inclination: 98.8 °
Period: 101.5 minutes
Semi major axis: 7206 km
RCS: Unknown
Launch date: November 11, 2022
Source: People's Republic of China (PRC)
Launch site: Taiyaun Space Center, China (TSC)

Note: This is SATELLITE DEBRIS
Your satellite tracking list
Your tracking list is empty




NASA's NSSDC Master Catalog

Two Line Element Set (TLE):
1 55238U 22151XF  24325.89450979  .00000784  00000-0  39462-3 0  9997
2 55238  98.8102 336.4974 0028308  32.5590 327.7324 14.19103323104879
Source of the keplerian elements: AFSPC